Location: Newark
(33.6439°N, 114.9881°W)
Time: 22:23:06
(UTC+00:00)

A-11 Canister half - Pass Details

Date: 23 August 2019
Orbit: 1527 x 1682 km, 47.3° (Epoch: 17 September)

Event Time Altitude Azimuth Distance (km) Brightness Sun altitude
Rises 16:03:06 0° 180° (S) 4,761 11.7 35.4°
Reaches altitude 10° 16:07:25 10° 163° (SSE) 3,808 11.5 36.2°
Maximum altitude 16:13:34 19° 123° (ESE) 3,201 12.1 37.5°
Drops below altitude 10° 16:19:48 10° 83° (E) 3,894 12.2 38.8°
Sets 16:24:13 0° 67° (ENE) 4,906 12.3 39.7°
